Regional Weather Roundup
Issued by NWS Upton, NY

Current Version | Previous Version | Text Only | Print | Product List | Glossary Off
Versions: 1 2 3 4 5 6 7 8 9 10 11 12 13 14 15 16 17 18 19 20 21 22 23 24 25 26 27 28 29 30 31 32 33 34 35 36 37 38 39 40 41 42 43 44 45 46 47 48 49 50
000 ASUS41 KOKX 291108 RWROKX REGIONAL WEATHER ROUNDUP NATIONAL WEATHER SERVICE NEW YORK NY 700 AM EDT SUN MAR 29 2015 NOTE: "FAIR" INDICATES FEW OR NO CLOUDS BELOW 12,000 FEET WITH NO SIGNIFICANT WEATHER AND/OR OBSTRUCTIONS TO VISIBILITY. NYZ071-072-176-178-NJZ106-104-291200- NEW YORK CITY METRO AREA CITY SKY/WX TMP DP RH WIND PRES REMARKS CENTRAL PARK CLOUDY 25 3 38 NW12 30.24R WCI 14 LAGUARDIA APRT MOCLDY 27 7 42 NW16 30.23R WCI 15 KENNEDY INTL MOCLDY 27 4 37 N14 30.22R WCI 16 NEWARK/LIBERTY PTCLDY 25 4 40 NW12 30.24R WCI 14 BRNX BOT. GARD N/A N/A N/A N/A W10 30.24R TETERBORO MOCLDY 25 5 42 NW7 30.23R WCI 17 $$ NYZ177-179-078>081-291200- LONG ISLAND NEW YORK CITY SKY/WX TMP DP RH WIND PRES REMARKS FARMINGDALE CLEAR 25 7 46 N6 30.20R WCI 18 ISLIP MOCLDY 25 10 53 N10 30.18R WCI 15 SHIRLEY CLOUDY 26 14 60 N10 30.19R WCI 16 WESTHAMPTON CLOUDY 26 16 65 N9 30.18R WCI 17 MONTAUK POINT N/A 28 13 53 N12G21 30.16R WCI 18 $$ NYZ052-065-067-291200- HUDSON VALLEY CITY SKY/WX TMP DP RH WIND PRES REMARKS WHITE PLAINS MOCLDY 23 5 46 NW10 30.18R WCI 12 NEWBURGH CLEAR 18 10 73 W6 30.22R WCI 9 MONTGOMERY CLEAR 20 5 52 NW7 30.21R WCI 11 POUGHKEEPSIE CLEAR 19 10 68 CALM 30.23R ALBANY CLEAR 11 5 77 CALM 30.24R $$ NJZ001-105-106-008-010-013-015-019>022-104-291200- NEW JERSEY CITY SKY/WX TMP DP RH WIND PRES REMARKS NEWARK/LIBERTY PTCLDY 25 4 40 NW12 30.24R WCI 14 TETERBORO MOCLDY 25 5 42 NW7 30.23R WCI 17 CALDWELL CLEAR 23 4 44 VRB3 30.24R MORRISTOWN PTCLDY 23 7 50 N7G15 30.23R WCI 15 SOMERVILLE PTCLDY 25 6 44 NW9 30.24R WCI 15 SUSSEX CLEAR 21 6 52 N7 30.22R WCI 12 ANDOVER N/A 20 7 57 N5 30.23R WCI 13 TRENTON MOCLDY 24 7 48 NW6 30.24R WCI 17 MILLVILLE CLEAR 25 7 46 NW7 30.27R WCI 17 ATLANTIC CITY CLEAR 24 8 50 NW10 30.25R WCI 14 WRIGHTSTOWN CLEAR 24 7 48 NW12 30.22R WCI 13 TOMS RIVER MOCLDY 23 9 54 NW7 30.24R WCI 15 BELMAR CLEAR 25 7 46 NW10 30.22R WCI 15 $$ PAZ047>061-062-071-291200- EASTERN PENNSYLVANIA CITY SKY/WX TMP DP RH WIND PRES REMARKS PHILADELPHIA PTCLDY 26 5 40 NW14 30.28R WCI 14 ALLENTOWN CLEAR 23 9 55 NW8 30.25R WCI 14 SCRANTON CLEAR 19 6 57 N6 30.24R WCI 11 $$ CTZ002-004>006-009-010-012-RIZ004-006-007-MAZ004-011-015-291200- SOUTHERN NEW ENGLAND IN CT CITY SKY/WX TMP DP RH WIND PRES REMARKS BRADLEY INTL PTCLDY 24 5 44 NW9 30.17R WCI 14 HARTFORD CLOUDY 25 7 46 N8 30.19R WCI 16 DANBURY MOCLDY 22 1 40 NW7 30.20R WCI 13 WTRBRY/OXFORD MOCLDY 21 1 42 N8 30.16R WCI 12 BRIDGEPORT CLOUDY 26 8 46 NW8 30.20R WCI 18 MERIDEN MOCLDY 24 7 48 N6 30.19R WCI 17 NEW HAVEN MOCLDY 26 9 48 NW9 30.18R WCI 17 CHESTER CLOUDY 27 10 50 N8 30.14R WCI 18 GROTON CLOUDY 25 11 55 N12 30.15R WCI 14 WILLIMANTIC PTCLDY 23 8 52 N6 30.17R WCI 16 IN RI CITY SKY/WX TMP DP RH WIND PRES REMARKS PROVIDENCE MOCLDY 25 12 58 N9 30.15R WCI 15 BLOCK ISLAND CLOUDY 27 16 63 N14G20 30.12R WCI 15 WESTERLY CLOUDY 23 14 68 N10 30.15R WCI 12 IN MA CITY SKY/WX TMP DP RH WIND PRES REMARKS BOSTON MOCLDY 26 8 46 NW10 30.15R WCI 16 WORCESTER CLEAR 19 3 49 NW8 30.10R WCI 9 WESTFIELD CLEAR 22 4 46 NW10 30.18R WCI 11 PROVINCETOWN MOCLDY 30 16 55 N13 30.13R WCI 20 NANTUCKET FLURRIES 32 23 69 N18G25 30.10R WCI 20 $$ ANZ330-335-338-340-345-350-353-355-291200- COASTAL MARINE OBSERVATIONS STATION/POSITION TIME SKY/WX TEMP WIND PRES VSBY WAVE AIR SEA DIR/SP/G HT/PER (UTC) (F) (DEG/KT/KT) (MB) (MI) (FT/S) NY HARB ENTRANCE 1050 29 38 340/ 17/ 21 1022.3 4/ 4 4S FIRE IS 1003 37 N/A 3/11 20S FIRE ISLAND 0950 38 1021.2 5/ 4 23SW MTP 1050 N/A 6/11 HUDSON CANYON NOT AVBL EXECUTION ROCKS NOT AVBL WESTERN LI SOUND NOT AVBL CENTRAL LI SOUND NOT AVBL EASTERN LI SOUND NOT AVBL ROBBINS REEF NOT AVBL $$ >>>>>>>>>>>>>>>>>>>>>>>>>>>> KEY <<<<<<<<<<<<<<<<<<<<<<<<<<< > < > SKY/WX - SKY CONDITION/PRESENT WEATHER < > TMP - TEMPERATURE IN FAHRENHEIT < > DP - DEWPOINT IN FAHRENHEIT < > RH - RELATIVE HUMIDITY IN PERCENT < > WIND - DIRECTION AND SPEED IN MPH < > PRES - MEAN SEA LEVEL PRESSURE IN INCHES OF HG < > WCI - WIND CHILL INDEX < > VSB - VISIBILITY IN MILES < > HX - HEAT INDEX < > TC - TEMPERATURE IN CELSIUS < > VRB - VARIABLE WIND DIRECTION < > < >>>>>>>>>>>>>>>>>>>>>>>>>>>> KEY <<<<<<<<<<<<<<<<<<<<<<<<<<<

USA.gov is the U.S. government's official web portal to all federal, state and local government web resources and services.